User: anonymous   Login
Location: Chenango Forks
(42.2242°N, 75.8278°W)
Time: 21:26:37
(UTC-04:00)
Language:

Okean 3 Rocket - Orbit

View from above orbital plane
View from above orbital plane
View from above satellite
View from above satellite

Ground track
Ground track

The orbit data is extracted from the following two-line orbital elements,

1 21398U 91039B   17086.71865885 +.00000097 +00000-0 +97324-5 0  9991
2 21398 082.5211 302.0281 0023020 089.8483 337.2775 14.79654897391868
Epoch (UTC): 27 March 2017 17:14:52
Eccentricity: 0.0023020
inclination: 82.5211°
perigee height: 614 km
apogee height: 646 km
right ascension of ascending node: 302.0281°
argument of perigee: 89.8483°
revolutions per day: 14.79654897
mean anomaly at epoch: 337.2775°
orbit number at epoch: 39186

The dashed part of the orbit path shows where the satellite is in the earth's shadow,  

DLR